Showing default

MEASAT 3B, 40147

Orbit data source: Space-Track

MEASAT 3B, 40147 is a payload satellite owned by Measat (MY) in GEO that was launched on Thu, 11 Sep 2014 UTC via an ARIANE 5ECA launch vehicle from the French Guiana (FRGUI). Payload-class satellites include a variety of spacecraft equipped with specific instruments for various scientific and technological missions. These include communications satellites like Starlink; space stations such as the ISS; scientific satellites like the Hubble; Earth observation satellites from companies like Planet Labs, Umbra, and HawkEye 360; GPS; miniature CubeSats for education and research; and military/defense satellites.

Not visible in the next 10 days
Identifier
40147, 2014-054B
Orbit
GEO
Country
Flag of UnknownUnknown / MALA
Related business
Manufacturer
Airbus/Toulouse
Mission
Operational Commercial Communications
Bus & Motor
EUROSTAR 3000, R-4D?
Mass
5,897 kg wet, ~3,000 kg dry
Launch date (UTC)
2014-09-11 (11 years ago)
Launch vehicle
ARIANE 5ECA
Launch site
French Guiana (FRGUI)
Object type
Payload
Rocket body
Debris
Shape & HBR
Box + 2 Pan, 17.2 m
Radar Cross Section
41.860 m², Large (>1 m²)

Expand to show TLE details & history
Last TLE update: 9 hours ago

TLE from 9 hours ago
0 MEASAT 3B
1 40147U 14054B   25351.57340904 -.00000216  00000-0  00000-0 0  9998
2 40147   0.0292  21.3333 0000716 305.2585  57.7798  1.00268776 41081
Epoch: 2025-12-17T13:45Z
TLE epoch observation values (Epoch: 2025-12-17T13:45:42.541Z)
Latitude
0.01401°
Longitude
91.49782°
Altitude
35,785.332 km
Speed
3.075 km/s
True Right ascension
01h 37m 27s
True Declination
0° 00' 50"
Sunlit
Object was in daylight at epoch
Visualization orbit readout
Latitude
Unknown
Longitude
Unknown
Altitude
Unknown
Speed
Unknown
Apparent Right ascension
Unknown
Apparent Declination
Unknown
Sunlit
N/A
Visualization observer readout
Local Sidereal Time
22:01:40
Azimuth
Unknown
Elevation
Unknown
Doppler factor
Unknown
Orbital elements
Apogee altitude
35,791.528 km
Perigee altitude
35,785.49 km
Semi-major axis
42,166.646 km
Eccentricity
0.00007
Inclination
0.0292°
RAAN
21.3333°
Arg. of periapsis
305.2585°
True anomaly
57.78674°
Mean anomaly
57.7798°
Eccentric anomaly
57.78327°
Mean motion
0.25066 °/min
Orbital period
1,436.19 mins
BSTAR
0
Loading maneuver chart data...
Computing Atmospheric mass density...
Loading historical data...
Loading historical data...
Loading historical data...
Loading historical data...
Loading historical data...
Loading historical data...
Loading historical data...
Other satellites on launch #54 in the year 2014 (2014-09-11 UTC)

Documentation

Showing up to 5 results
|